Date String (YYYY-MM-DD hh:mm:ss) UTC,Instrument flags,Ambient pressure (hPa),Sample flow (lpm),Bypass flow (lpm),Sample temperature (°C),Ambient temperature (°C),ASC tube jacket temperature (°C),LED temperature (°C),Box temperature (°C),Sample RH (%),Span deviation,Mass concentration (μg/m³),Mass concentration (μg/m³),Mass concentration (μg/m³)
DateTimeUTC,F1_M11,P_M11,Q1_M11,Q2_M11,T1_M11,T2_M11,T3_M11,T4_M11,T5_M11,U1_M11,ZSPAN_M11,X0_M11,X2_M11,X1_M11
2022-01-19 15:00:00,,0828.9,5.01,0.00,22.2,22.1,00.0,31.2,23.9,14.1,0000.6,0008.53,0006.56,0006.49
2022-01-19 15:01:00,,0828.9,4.98,0.00,22.1,21.9,00.0,31.1,23.8,14.1,0000.7,0008.52,0006.53,0006.46
2022-01-19 15:02:00,,0829.0,5.01,0.00,22.1,21.8,00.0,31.1,23.7,14.1,0000.2,0008.45,0006.47,0006.40
2022-01-19 15:03:00,,0829.0,4.99,0.00,22.1,21.7,00.0,31.1,23.7,14.1,0000.0,0008.41,0006.43,0006.36
2022-01-19 15:04:00,,0829.0,4.99,0.00,22.0,21.6,00.0,31.1,23.6,14.1,0000.2,0008.40,0006.40,0006.32
2022-01-19 15:05:00,,0829.1,5.01,0.00,22.0,21.5,00.0,31.1,23.6,14.1,-000.1,0008.41,0006.39,0006.31
2022-01-19 15:06:00,,0829.1,5.00,0.00,21.9,21.4,00.0,31.1,23.5,14.2,-000.4,0008.41,0006.37,0006.27
2022-01-19 15:07:00,,0829.1,4.99,0.00,21.9,21.4,00.0,31.1,23.5,14.2,-000.4,0008.45,0006.37,0006.27
2022-01-19 15:08:00,,0829.1,5.01,0.00,21.9,21.3,00.0,31.0,23.5,14.2,-000.7,0008.37,0006.32,0006.22
2022-01-19 15:09:00,,0829.2,5.00,0.00,21.9,21.7,00.0,31.1,23.6,14.2,-000.9,0008.31,0006.27,0006.17
2022-01-19 15:10:00,,0829.2,5.00,0.00,22.1,22.5,00.0,31.1,23.9,14.1,-000.9,0008.25,0006.21,0006.11
2022-01-19 15:11:00,,0829.2,4.99,0.00,22.2,23.0,00.0,31.1,24.2,13.9,-000.2,0008.20,0006.16,0006.06
2022-01-19 15:12:00,,0829.2,5.00,0.00,22.3,22.9,00.0,31.2,24.2,13.9,-000.2,0008.18,0006.15,0006.05
2022-01-19 15:13:00,,0829.2,5.00,0.00,22.3,22.7,00.0,31.2,24.1,13.8,-000.2,0008.18,0006.13,0006.03
2022-01-19 15:14:00,,0829.2,5.00,0.00,22.3,22.4,00.0,31.2,24.0,13.8,-000.2,0008.19,0006.14,0006.04
2022-01-19 15:15:00,,0829.2,5.00,0.00,22.2,22.2,00.0,31.2,23.9,13.9,0000.0,0008.18,0006.13,0006.03
2022-01-19 15:16:00,,0829.2,4.99,0.00,22.2,22.1,00.0,31.2,23.9,13.9,0000.0,0008.12,0006.09,0006.00
2022-01-19 15:17:00,,0829.2,4.99,0.00,22.2,21.9,00.0,31.2,23.8,13.9,0000.0,0008.05,0006.04,0005.97
2022-01-19 15:18:00,,0829.2,5.00,0.00,22.1,21.8,00.0,31.2,23.8,13.9,0000.0,0007.97,0005.98,0005.93
2022-01-19 15:19:00,,0829.4,4.99,0.00,22.1,21.7,00.0,31.2,23.7,14.0,0000.0,0007.98,0005.98,0005.92
2022-01-19 15:20:00,,0829.2,5.01,0.00,22.0,21.6,00.0,31.1,23.7,14.0,0000.0,0007.96,0005.98,0005.93
2022-01-19 15:21:00,,0829.3,5.00,0.00,22.0,21.6,00.0,31.1,23.7,14.0,0000.0,0007.96,0005.98,0005.93
2022-01-19 15:22:00,,0829.3,5.01,0.00,22.0,21.5,00.0,31.1,23.6,14.1,0000.0,0007.96,0005.99,0005.94
2022-01-19 15:23:00,,0829.5,5.00,0.00,22.0,21.4,00.0,31.1,23.6,14.1,0000.0,0007.91,0005.96,0005.92
2022-01-19 15:24:00,,0829.5,5.00,0.00,21.9,21.4,00.0,31.1,23.5,14.1,0000.0,0007.90,0005.95,0005.91
2022-01-19 15:25:00,,0829.5,4.99,0.00,21.9,21.5,00.0,31.1,23.5,14.1,0000.0,0007.89,0005.94,0005.91
2022-01-19 15:26:00,,0829.5,5.00,0.00,22.0,22.1,00.0,31.1,23.8,14.0,0000.0,0007.88,0005.93,0005.90
2022-01-19 15:27:00,,0829.5,5.01,0.00,22.2,22.9,00.0,31.1,24.1,13.9,0000.0,0007.87,0005.92,0005.89
2022-01-19 15:28:00,,0829.5,4.98,0.00,22.3,23.0,00.0,31.2,24.2,13.8,0000.0,0007.90,0005.94,0005.90
2022-01-19 15:29:00,,0829.5,5.00,0.00,22.3,22.8,00.0,31.2,24.2,13.8,-000.1,0007.91,0005.92,0005.87
2022-01-19 15:30:00,,0829.5,5.01,0.00,22.3,22.5,00.0,31.2,24.1,13.8,-000.0,0007.88,0005.89,0005.84
2022-01-19 15:31:00,,0829.5,5.01,0.00,22.3,22.3,00.0,31.2,24.0,13.8,0000.0,0007.87,0005.87,0005.82
2022-01-19 15:32:00,,0829.6,4.99,0.00,22.2,22.2,00.0,31.2,23.9,13.8,0000.0,0007.84,0005.84,0005.80
2022-01-19 15:33:00,,0829.6,5.02,0.00,22.2,22.0,00.0,31.2,23.9,13.8,0000.0,0007.79,0005.79,0005.75
2022-01-19 15:34:00,,0829.6,4.99,0.00,22.2,21.9,00.0,31.2,23.8,13.9,0000.0,0007.81,0005.78,0005.74
2022-01-19 15:35:00,,0829.6,5.01,0.00,22.1,21.8,00.0,31.2,23.8,13.9,0000.0,0007.81,0005.75,0005.72
2022-01-19 15:36:00,,0829.5,5.01,0.00,22.1,21.7,00.0,31.2,23.7,13.9,0000.0,0007.79,0005.72,0005.68
2022-01-19 15:37:00,,0829.5,4.99,0.00,22.0,21.6,00.0,31.2,23.7,13.9,0000.0,0007.78,0005.70,0005.65
2022-01-19 15:38:00,,0829.6,4.99,0.00,22.0,21.5,00.0,31.1,23.6,14.0,0000.0,0007.76,0005.69,0005.63
2022-01-19 15:39:00,,0829.6,5.02,0.00,22.0,21.5,00.0,31.1,23.6,14.0,0000.0,0007.72,0005.65,0005.60
2022-01-19 15:40:00,,0829.6,5.00,0.00,22.0,21.4,00.0,31.1,23.6,14.0,0000.0,0007.69,0005.65,0005.60
2022-01-19 15:41:00,,0829.6,5.00,0.00,21.9,21.4,00.0,31.1,23.5,14.1,0000.0,0007.66,0005.65,0005.60
2022-01-19 15:42:00,,0829.6,5.01,0.00,21.9,21.3,00.0,31.1,23.5,14.1,0000.0,0007.61,0005.61,0005.57
2022-01-19 15:43:00,,0829.6,4.99,0.00,21.9,21.4,00.0,31.1,23.5,14.1,0000.0,0007.58,0005.57,0005.53
2022-01-19 15:44:00,,0829.6,4.99,0.00,22.0,22.0,00.0,31.1,23.7,14.0,0000.0,0007.55,0005.54,0005.49
2022-01-19 15:45:00,,0829.6,5.00,0.00,22.1,22.7,00.0,31.1,24.0,14.0,0000.0,0007.48,0005.49,0005.44
2022-01-19 15:46:00,,0829.6,5.00,0.00,22.3,23.0,00.0,31.2,24.2,13.8,0000.0,0007.41,0005.46,0005.41
2022-01-19 15:47:00,,0829.6,5.00,0.00,22.3,22.8,00.0,31.2,24.2,13.8,0000.0,0007.38,0005.42,0005.38
2022-01-19 15:48:00,,0829.6,5.01,0.00,22.3,22.5,00.0,31.2,24.1,13.8,0000.0,0007.28,0005.36,0005.32
2022-01-19 15:49:00,,0829.7,5.01,0.00,22.2,22.3,00.0,31.2,24.0,13.8,0000.0,0007.19,0005.31,0005.28
2022-01-19 15:50:00,,0829.6,4.99,0.00,22.2,22.1,00.0,31.2,23.9,13.9,0000.0,0007.14,0005.28,0005.25
2022-01-19 15:51:00,,0829.6,4.99,0.00,22.2,21.9,00.0,31.2,23.8,13.9,0000.0,0007.10,0005.25,0005.22
2022-01-19 15:52:00,,0829.6,5.01,0.00,22.1,21.8,00.0,31.2,23.8,13.9,0000.0,0007.05,0005.22,0005.20
2022-01-19 15:53:00,,0829.6,5.00,0.00,22.1,21.7,00.0,31.2,23.7,13.9,0000.0,0007.04,0005.20,0005.17
2022-01-19 15:54:00,,0829.7,4.99,0.00,22.1,21.6,00.0,31.2,23.7,13.9,0000.0,0007.06,0005.20,0005.16
2022-01-19 15:55:00,,0829.7,5.01,0.00,22.0,21.5,00.0,31.1,23.6,13.9,0000.0,0007.04,0005.19,0005.15
2022-01-19 15:56:00,,0829.7,4.99,0.00,22.0,21.4,00.0,31.1,23.6,14.0,0000.0,0007.06,0005.20,0005.16
2022-01-19 15:57:00,,0829.7,5.01,0.00,21.9,21.3,00.0,31.1,23.5,14.0,0000.0,0007.14,0005.21,0005.15
2022-01-19 15:58:00,,0829.8,5.00,0.00,21.9,21.2,00.0,31.1,23.4,14.0,0000.0,0007.13,0005.20,0005.15
2022-01-19 15:59:00,,0829.8,5.01,0.00,21.8,21.3,00.0,31.0,23.4,14.1,0000.0,0007.14,0005.20,0005.15
